This demonstration page uses our WeatherBlox Daily Observations layout. Learn more.

Left ArrowRight Arrow

53.62937, 11.41316

Hourly Observations for April 5, 2021

Temp ( °F °C ) Dew Point ( °F °C ) Humidity (%) Winds ( mph kmh ) Pressure ( in mb ) Visibility ( mi km ) Precip ( " mm )
5:50 am 05:50 Mostly Cloudy with Light Rain 41 5 39 4 93 93 SSW 18 30 29.44 997 3 5 N/A
6:20 am 06:20 Mostly Cloudy with Light Rain 41 5 41 5 100 100 SW 17 28 29.41 996 2 4 N/A
6:50 am 06:50 Mostly Cloudy with Light Rain 41 5 37 3 87 87 W 13 20 29.44 997 4 7 N/A
7:20 am 07:20 Mostly Cloudy with Light Rain 39 4 37 3 93 93 WSW 7 11 29.44 997 30 48 N/A
7:50 am 07:50 Mostly Cloudy with Light Rain 37 3 36 2 93 93 W 8 13 29.44 997 30 48 N/A
8:20 am 08:20 Mostly Sunny 37 3 32 0 81 81 WSW 10 17 29.44 997 30 48 N/A
8:50 am 08:50 Mostly Sunny 37 3 32 0 81 81 WSW 10 17 29.44 997 30 48 N/A
9:20 am 09:20 Mostly Sunny 39 4 32 0 75 75 WSW 10 17 29.44 997 30 48 N/A
9:50 am 09:50 Mostly Sunny 39 4 30 -1 70 70 WSW 13 20 29.44 997 30 48 N/A
10:20 am 10:20 Mostly Cloudy with Light Showers 39 4 30 -1 70 70 WSW 14 22 29.44 997 30 48 N/A
10:50 am 10:50 Mostly Cloudy with Light Wintry Mix 34 1 32 0 93 93 W 10 17 29.47 998 4 6 N/A
11:20 am 11:20 Partly Cloudy with Showers Nearby 36 2 30 -1 81 81 W 9 15 29.50 999 30 48 N/A
11:50 am 11:50 Mostly Sunny 37 3 27 -3 65 65 W 9 15 29.50 999 30 48 N/A
12:20 pm 12:20 Mostly Sunny 39 4 25 -4 56 56 W 14 22 29.50 999 30 48 N/A
12:50 pm 12:50 Partly Cloudy 39 4 19 -7 45 45 WSW 15 24 29.50 999 30 48 N/A
1:20 pm 13:20 Partly Cloudy 41 5 23 -5 49 49 W 15 24 29.50 999 30 48 N/A
1:50 pm 13:50 Partly Cloudy 39 4 19 -7 45 45 WSW 21 33 29.50 999 30 48 N/A
2:20 pm 14:20 Partly Cloudy with Light Snow Showers 37 3 21 -6 52 52 WSW 15 24 29.50 999 30 48 N/A
2:50 pm 14:50 Partly Cloudy with Showers Nearby 36 2 28 -2 75 75 WSW 13 20 29.53 1000 30 48 N/A
3:20 pm 15:20 Mostly Cloudy with Showers Nearby 32 0 30 -1 93 93 WSW 14 22 29.53 1000 2 3 N/A
3:50 pm 15:50 Mostly Cloudy with Snow Showers 34 1 32 0 93 93 WSW 10 17 29.56 1001 0 1 N/A
4:20 pm 16:20 Mostly Cloudy with Light Snow Showers 32 0 32 0 100 100 WSW 13 20 29.53 1000 1 1 N/A
4:50 pm 16:50 Partly Cloudy with Showers Nearby 36 2 32 0 87 87 WSW 9 15 29.53 1000 30 48 N/A
5:20 pm 17:20 Mostly Sunny 34 1 28 -2 81 81 WSW 12 19 29.53 1000 30 48 N/A
5:50 pm 17:50 Partly Cloudy with Showers Nearby 36 2 30 -1 81 81 SW 10 17 29.53 1000 30 48 N/A
6:20 pm 18:20 Partly Cloudy with Showers Nearby 37 3 28 -2 70 70 WSW 13 20 29.53 1000 30 48 N/A
6:50 pm 18:50 Mostly Sunny 37 3 28 -2 70 70 WSW 12 19 29.56 1001 30 48 N/A
7:20 pm 19:20 Mostly Sunny 37 3 27 -3 65 65 WSW 12 19 29.56 1001 30 48 N/A
7:50 pm 19:50 Mostly Sunny 37 3 27 -3 65 65 WSW 12 19 29.56 1001 30 48 N/A
8:20 pm 20:20 Mostly Clear 37 3 27 -3 65 65 WSW 10 17 29.59 1002 30 48 N/A
8:50 pm 20:50 Mostly Clear 37 3 27 -3 65 65 WSW 9 15 29.59 1002 30 48 N/A
9:20 pm 21:20 Mostly Clear 36 2 27 -3 70 70 WSW 9 15 29.62 1003 30 48 N/A
9:50 pm 21:50 Mostly Clear 36 2 27 -3 70 70 WSW 8 13 29.62 1003 7 11 N/A

Powered by AerisWeather